Flag for Russia Weather past 2 weeks in Astrakhan, Russia

Now
90 °F

Passing clouds.


Feels Like: 86 °F
Forecast: 73 / 87 °F
Wind: 6 mph from North

Location: Astrakhan

Current Time: Jul 3, 2015 at 11:50:43 AM

Latest Report: Jul 3, 2015 at 11:30 AM


Visibility: N/A

Pressure: 29.95 "Hg

Humidity: 20%

Dew point: 43 °F

Location of AstrakhanLocation

Historic Weather in Astrakhan — Graph

°F

Astrakhan temperature yesterday

Maximum temperature yesterday: 91 °F (at 12:00 PM)
Minimum temperature yesterday: 68 °F (at 4:00 AM)
Average temperature yesterday: 82 °F

Past Weeks' High & Low Weather Summary

 TemperatureHumidityPressure
High106 °F (Jun 23, 11:30 AM)83% (Jun 20, 2:30 AM)30.04 "Hg (Jun 20, 2:30 AM)
Low68 °F (Jun 19, 3:30 AM)11% (Jun 19, 12:30 PM)29.53 "Hg (Jun 26, 2:30 PM)
Average87 °F38%29.74 "Hg
* Reported Jun 18 10:00 AM — Jul 3 10:30 AM, Astrakhan, Weather by CustomWeather, © 2015

Note: Actual official high and low records may vary slightly from our data, if they occured in-between our weather recording intervals... More about our weather records

Advertising

Astrakhan weather history for previous 24 hours

 ConditionsComfort  
Time TempWeatherWind HumidityBarometerVisibility
10:30 AM
Fri, Jul 3
88 °FPartly sunny.3 mph22%29.98 "HgN/A
10:00 AM88 °FPartly sunny.10 mph21%29.98 "HgN/A
9:30 AM88 °FPartly sunny.8 mph22%29.98 "HgN/A
9:00 AM88 °FBroken clouds.6 mph24%29.98 "HgN/A
8:30 AM86 °FBroken clouds.6 mph27%29.98 "HgN/A
8:00 AM84 °FBroken clouds.8 mph29%29.98 "HgN/A
7:30 AM82 °FBroken clouds.6 mph30%29.98 "HgN/A
6:30 AM79 °FSunny.6 mph34%29.98 "Hg10 mi
6:00 AM77 °FPassing clouds.3 mph36%29.98 "HgN/A
5:30 AM75 °FPassing clouds.6 mph41%29.98 "HgN/A
5:00 AM73 °FSunny.1 mph44%29.98 "Hg10 mi
4:30 AM68 °FClear.1 mph53%29.98 "Hg10 mi
4:00 AM68 °FClear.No wind53%29.95 "Hg10 mi
3:30 AM72 °FClear.1 mph47%29.95 "Hg10 mi
3:00 AM73 °FClear.3 mph44%29.95 "Hg10 mi
2:30 AM70 °FClear.3 mph50%29.98 "Hg10 mi
2:00 AM72 °FClear.No wind47%29.98 "Hg10 mi
1:30 AM72 °FClear.No wind44%29.98 "Hg10 mi
12:30 AM72 °FClear.No wind47%29.98 "Hg10 mi
12:00 AM75 °FClear.No wind41%29.98 "Hg10 mi
11:30 PM
Thu, Jul 2
75 °FClear.1 mph41%29.98 "Hg10 mi
11:00 PM77 °FClear.1 mph36%29.98 "Hg10 mi
10:30 PM75 °FClear.3 mph39%29.98 "Hg10 mi
10:00 PM79 °FClear.3 mph34%29.98 "Hg10 mi
9:30 PM81 °FClear.6 mph32%29.98 "Hg10 mi
9:00 PM81 °FClear.3 mph32%29.98 "Hg10 mi
8:30 PM82 °FSunny.3 mph32%29.98 "Hg10 mi
8:00 PM84 °FSunny.3 mph31%29.98 "Hg10 mi
7:30 PM84 °FSunny.6 mph31%29.98 "Hg10 mi
7:00 PM86 °FPassing clouds.6 mph29%29.98 "HgN/A
6:30 PM88 °FPassing clouds.8 mph25%29.98 "HgN/A
6:00 PM88 °FSunny.8 mph27%29.98 "Hg10 mi
5:30 PM90 °FScattered clouds.10 mph24%29.95 "HgN/A
5:00 PM90 °FScattered clouds.8 mph26%29.95 "HgN/A
4:30 PM91 °FScattered clouds.8 mph24%29.95 "HgN/A
4:00 PM90 °FScattered clouds.13 mph26%29.98 "HgN/A
3:30 PM91 °FPartly sunny.10 mph26%29.98 "HgN/A
3:00 PM91 °FPartly sunny.8 mph24%29.98 "HgN/A
2:30 PM91 °FPartly sunny.8 mph23%29.98 "HgN/A
2:00 PM91 °FPartly sunny.8 mph23%29.98 "HgN/A
1:30 PM91 °FPartly sunny.8 mph23%29.98 "HgN/A
1:00 PM90 °FPartly sunny.8 mph26%29.98 "HgN/A
12:30 PM91 °FPartly sunny.10 mph24%29.98 "HgN/A
12:00 PM91 °FScattered clouds.8 mph24%30.01 "HgN/A
11:30 AM90 °FScattered clouds.10 mph26%30.01 "HgN/A
11:00 AM90 °FScattered clouds.10 mph26%30.01 "HgN/A
Weather by CustomWeather, © 2015

See weather overviewHow to use our weather pages